Regional Weather Roundup
Issued by NWS Cleveland, OH

Home | Current Version | Previous Version | Text Only | Print | Product List | Glossary Off
Versions: 1 2 3 4 5 6 7 8 9 10 11 12 13 14 15 16 17 18 19 20 21 22 23 24 25 26 27 28 29 30 31 32 33 34 35 36 37 38 39 40 41 42 43 44 45 46 47 48 49 50

000
ASUS41 KCLE 230802
RWRCLE
OHIO REGIONAL WEATHER ROUNDUP
NATIONAL WEATHER SERVICE CLEVELAND, OH
400 AM EDT SAT AUG 23 2014

NOTE: "FAIR" INDICATES FEW OR NO CLOUDS BELOW 12,000 FEET WITH NO
SIGNIFICANT WEATHER AND/OR OBSTRUCTIONS TO VISIBILITY.

OHZ001>008-015>018-024>027-034-035-043-044-230900-
   NORTHWEST OHIO

CITY           SKY/WX    TMP DP  RH WIND       PRES   REMARKS
DEFIANCE       MOCLDY    72  68  87 CALM      29.99F FOG
FINDLAY        CLEAR     69  67  93 CALM      29.98S FOG
TOLEDO EXPRESS CLEAR     69  69 100 CALM      29.99S FOG
TOLEDO EXEC    MOCLDY    72  67  84 N7        30.00R
LIMA           PTCLDY    71  69  93 CALM      29.99S FOG
$$

OHZ009>014-019>023-028>033-038-089-230900-
   NORTHEAST OHIO

CITY           SKY/WX    TMP DP  RH WIND       PRES   REMARKS
CLE-HOPKINS    CLOUDY    72  69  90 CALM      30.00S
CLE-LAKEFRONT  PTCLDY    72  68  87 N6        29.97S
CUY CO. ARPT   NOT AVBL
LORAIN-ELYRIA  MOCLDY    71  68  90 CALM      29.99S FOG
ASHTABULA      FOG       65  65 100 CALM      29.99S VSB 1/4
AKRON-CANTON   PTCLDY    68  65  90 N7        29.98F FOG
WOOSTER        CLEAR     66  64  93 CALM      29.99S FOG
MANSFIELD      FOG       67  67 100 CALM      30.00S VSB 1/4
YOUNGSTOWN     PTCLDY    66  64  93 CALM      29.98F FOG
$$

OHZ042-051>053-060>062-070>072-077>081-230900-
  SOUTHWEST OHIO

CITY           SKY/WX    TMP DP  RH WIND       PRES   REMARKS
CINC-COVINGTON CLEAR     73  70  90 CALM      29.99S FOG
CINC-LUNKEN    FOG       71  71 100 CALM      29.98F VSB 1/2
HAMILTON       CLEAR     71  70  96 CALM      29.98F FOG
DAYTON         PTCLDY    73  71  93 CALM      30.00S FOG
WRIGHT-PAT AFB NOT AVBL
DAYTON GENERAL CLEAR     72  71  97 CALM      29.98F
WILMINGTON     CLEAR     72  69  90 N5        29.99S
$$

OHZ036-037-039>041-045>050-054>059-063>069-073>076-082>088-230900-
  CENTRAL AND SOUTHEAST OHIO

CITY           SKY/WX    TMP DP  RH WIND       PRES   REMARKS
COLUMBUS       CLEAR     74  70  87 CALM      29.97R
OSU AIRPORT    FOG       71  70  96 NW3       29.98S VSB 1/4
BOLTON FIELD   FOG       70  70 100 NW3       29.99S VSB 1/4
RICKENBACK AFB FOG       70  66  88 CALM      29.97S VSB 1/2
NEWARK         FOG       67  66  97 CALM      29.97R VSB 1/4
MARION         CLEAR     68  66  93 CALM      29.99S FOG
LANCASTER      MOCLDY    69  68  96 CALM      29.98R FOG
ZANESVILLE     FOG       69  67  93 CALM      29.97S VSB 1/4
NEW PHILLY     FOG       70  70 100 CALM      29.98S VSB 3/4
$$


USA.gov is the U.S. government's official web portal to all federal, state and local government web resources and services.